User: anonymous   Login
Location: Unspecified
(0.0000°N, 0.0000°E)
Time: 00:13:30
(UTC+02:00)
Language:

ARIANE 5 R/B - Orbit

View from above orbital plane
View from above orbital plane
View from above satellite
View from above satellite

Ground track
Ground track

The orbit data is extracted from the following two-line orbital elements,

1 28787U 05028B   16272.10948718 -.00000073  00000-0  52202-4 0  9999
2 28787   6.8629 136.2781 7161506   4.2009 152.7902  2.26568646 92174
Epoch (UTC): 28 September 2016 02:37:39
Eccentricity: 0.7161506
inclination: 6.8629°
perigee height: 572 km
apogee height: 35645 km
right ascension of ascending node: 136.2781°
argument of perigee: 4.2009°
revolutions per day: 2.26568646
mean anomaly at epoch: 152.7902°
orbit number at epoch: 9217

The dashed part of the orbit path shows where the satellite is in the earth's shadow,  

DLR